OSCAR 15 (UOSAT 4)

Satellite information

Favourite Embed

Satellite Type and Status

PAYLOADIN ORBIT

Key statistics

Satellite OSCAR 15 (UOSAT 4) at a glance.

Uptime

13110

Days in orbit

Revolutions

≈ 14.3

Per day

Orbit

SSO

Sun Synchronous Orbit

Inclination

98.8

Latest

Satellite identification and parameters

Extended collection of information and parameters for OSCAR 15 (UOSAT 4).

Object identification

Identified? True

Debris? False

Object name: OSCAR 15 (UOSAT 4)

International designator: 1990-005C

Object number (NORAD): 20438

Object ID (CCSDS): 20438

Country: UNITED KINGDOM (UK)

Current information (Y/N): Y

RCS size: MEDIUM

Orbital parameters

Period: 100.582 minutes

Inclination: 98.8137 deg

SMA: 7164.28 km

Apoapsis: 793.244 km

Periapsis: 779.047 km

RAAN: 35.2962 deg

Eccentricy: 0.00099079

Argument of periapsis: 173.1521 deg

Mean anomaly: 257.4715 deg

Mean motion: 14.31673252 rev/day

Mean motion (dot): 0.00000141 rev/day2

B* drag term: 0.000069951735 1/REarth

Two-line elements (TLE)

Creation date: Dec. 12, 2025, 10:14 a.m.

Reference frame: TEME

Reference center: EARTH

Epoch: Dec. 12, 2025, 4:02 a.m. UTC

TLE line 0: 0 OSCAR 15 (UOSAT 4)

TLE line 1: 1 20438U 90005C 25346.16844777 .00000141 00000-0 69952-4 0 9996

TLE line 2: 2 20438 98.8137 35.2962 0009908 173.1521 257.4715 14.31673252873461

Live tracking on map

Real-time ground track for satellite OSCAR 15 (UOSAT 4).

In-orbit conjunctions

There are no conjunctions computed for OSCAR 15 (UOSAT 4), at the moment. Check back to stay up to date, as we update our databases every day.

Go to all conjunctions

Associated space launch

French Earth observation satellite

OSCAR 15 (UOSAT 4) was lifted into orbit during the mission ‘Ariane 40 | SPOT 2’, on board a Ariane 40 space rocket.

The launch took place on Jan. 22, 1990, 1:35 a.m. from Ariane Launch Area 2.

For more information about the launch, click the button.

Launch to space Ariane 40 | SPOT 2
Ariane 40 | SPOT 2

Agency: N/A

Status: Launch Successful

Launch date: Jan. 22, 1990, 1:35 a.m. UTC

Rocket: Ariane 40

Launch pad: Ariane Launch Area 2

Location: Guiana Space Centre, French Guiana

...

Latest news about this satellite

There are no fresh news available about this satellite. Check back as we update our databases every day.


Newsletter sign-up

Weekly statistics, charts and insights to help you stay on top of the space industry.